This is the latest recevied weather packets stored in our database for station/object SQ6RR-11. If no packets are shown the sender has not sent any weather packets the latest 10 day(s).
| Time | Temp. | Humidity | Pressure | Rain* | Wind** | Luminosity | Snow |
|---|---|---|---|---|---|---|---|
| 1778063567 | 17.78° C | 48% | 1008.1 hPa | 0 mm | - | - | - |
| 1778063296 | 18.33° C | 49% | 1008.1 hPa | 0 mm | - | - | - |
| 1778063024 | 17.78° C | 49% | 1008.2 hPa | 0 mm | - | - | - |
| 1778062782 | 18.89° C | 51% | 1008.2 hPa | 0 mm | - | - | - |
| 1778062508 | 18.89° C | 49% | 1008.1 hPa | 0 mm | - | - | - |
| 1778062246 | 18.33° C | 50% | 1008.2 hPa | 0 mm | - | - | - |
| 1778061986 | 18.33° C | 51% | 1008 hPa | 0 mm | - | - | - |
| 1778061713 | 17.78° C | 51% | 1007.9 hPa | 0 mm | - | - | - |
| 1778061443 | 17.78° C | 51% | 1007.8 hPa | 0 mm | - | - | - |
| 1778061169 | 17.22° C | 51% | 1007.8 hPa | 0 mm | - | - | - |
| 1778060889 | 17.78° C | 52% | 1007.9 hPa | 0 mm | - | - | - |
| 1778060633 | 17.78° C | 54% | 1008 hPa | 0 mm | - | - | - |
| 1778060358 | 17.22° C | 53% | 1008 hPa | 0 mm | - | - | - |
| 1778060103 | 17.22° C | 53% | 1008 hPa | 0 mm | - | - | - |
| 1778059853 | 17.22° C | 55% | 1008 hPa | 0 mm | - | - | - |
| 1778059596 | 17.22° C | 55% | 1008 hPa | 0 mm | - | - | - |
| 1778059343 | 17.22° C | 54% | 1008 hPa | 0 mm | - | - | - |
| 1778059058 | 17.22° C | 53% | 1007.9 hPa | 0 mm | - | - | - |
| 1778058793 | 17.78° C | 52% | 1007.9 hPa | 0 mm | - | - | - |
| 1778058534 | 17.78° C | 55% | 1007.9 hPa | 0 mm | - | - | - |
| 1778058256 | 17.22° C | 55% | 1007.9 hPa | 0 mm | - | - | - |
| 1778057991 | 16.67° C | 54% | 1008 hPa | 0 mm | - | - | - |
| 1778057707 | 17.22° C | 51% | 1008 hPa | 0 mm | - | - | - |
| 1778057463 | 17.78° C | 52% | 1007.8 hPa | 0 mm | - | - | - |
| 1778057191 | 18.33° C | 52% | 1007.7 hPa | 0 mm | - | - | - |
* Rain latest hour (hover to see other rain measurements)
** Current wind speed in m/s (hover to see current wind gust speed)